Regional Weather Roundup
Issued by NWS

Home | Current Version | Previous Version | Graphics & Text | Print | Product List | Glossary On
Versions: 1 2 3 4 5 6 7 8 9 10 11 12 13 14 15 16 17 18 19 20 21 22 23 24 25 26 27 28 29 30 31 32 33 34 35 36 37 38 39 40 41 42 43 44 45 46 47 48 49 50
000
ASUS45 KBOU 271707
RWRCO

WEATHER ROUNDUP FOR COLORADO
NATIONAL WEATHER SERVICE DENVER/BOULDER CO
1100 AM MDT WED MAY 27 2015

NOTE: "FAIR" INDICATES FEW OR NO CLOUDS BELOW 12000 FEET WITH NO
SIGNIFICANT WEATHER AND/OR OBSTRUCTIONS TO VISIBILITY.

COZ001>005-013-030-031-271800-
...NORTHWEST COLORADO...

CITY           SKY/WX    TMP DP  RH WIND       PRES   REMARKS
CRAIG          MOSUNNY   62  43  49 W10       30.17S
HAYDEN         MOSUNNY   55  41  58 W3        30.19S
MEEKER         SUNNY     61  43  51 CALM      30.17F
MOUNT WERNER   NOT AVBL
STEAMBOAT SPGS PTSUNNY   55  42  61 CALM      30.20S
WALDEN         CLOUDY    52  34  50 SW9       30.23S
$$

COZ006>008-011-271800-
...WEST CENTRAL VALLEYS...

CITY           SKY/WX    TMP DP  RH WIND       PRES   REMARKS
GRAND JUNCTION SUNNY     65  47  52 SE6       30.12F
MONTROSE       SUNNY     63  44  50 NW8       30.17F
EAGLE          NOT AVBL
RIFLE          SUNNY     61  44  53 CALM      30.16F
DELTA          SUNNY     67  47  47 CALM      30.15F
NUCLA          SUNNY     63  43  48 NW6       30.21F
$$

COZ017>023-064>068-271800-
...SOUTHWEST COLORADO...

CITY           SKY/WX    TMP DP  RH WIND       PRES   REMARKS
DURANGO        MOSUNNY   64  41  42 VRB5      30.22F
CORTEZ         SUNNY     69  42  37 VRB7      30.16F
PAGOSA SPRINGS NOT AVBL
TELLURIDE      PTSUNNY   55  31  40 CALM      30.32S
WOLF CREEK PAS NOT AVBL
$$

COZ009-010-012-014-032>034-037-058>063-271800-
...CENTRAL COLORADO...

CITY           SKY/WX    TMP DP  RH WIND       PRES   REMARKS
ASPEN          PTSUNNY   59  39  47 NE8       30.22F
BUENA VISTA    PTSUNNY   61  28  29 W10G22    30.23S
COPPER MTN     CLOUDY    41  28  60 SW18G28   30.42R
BERTHOUD PASS  FAIR      32  27  80 W30G41    30.41R WCI  18
COTTONWOOD PAS MOSUNNY   52  23  32 W12G25    30.32R
GUNNISON       SUNNY     55  36  47 SE5       30.28F
KREMMLING      MOSUNNY   61  32  33 SW14G22   30.22S
LEADVILLE      PTSUNNY   50  28  42 NW10G20   30.30S
SALIDA         MOSUNNY   64  31  28 W17G23    30.29S
SUNLIGHT       CLOUDY    45  36  70 CALM      30.40R
WILKERSON PASS CLOUDY    46  30  53 SW7       30.40R
$$

COZ069>075-271800-
...SAN LUIS VALLEY/SANGRE DE CRISTO MOUNTAINS...

CITY           SKY/WX    TMP DP  RH WIND       PRES   REMARKS
ALAMOSA        SUNNY     60  38  43 SE7       30.25F
LA VETA PASS   MOSUNNY  N/A N/A N/A MISG      30.38R
SAGUACHE       MOSUNNY   55  41  58 SE5       30.28S
$$

COZ035-036-038>040-271800-
...NORTHERN COLORADO FRONT RANGE...

CITY           SKY/WX    TMP DP  RH WIND       PRES   REMARKS
DENVER INTL AP PTSUNNY   69  46  43 VRB3      30.09S
DMNS CITY PARK   N/A     71  42  34 NE3       30.07S
AURORA         PTSUNNY   69  40  35 NW5       30.09S
FRONT RANGE AP PTSUNNY   68  45  42 CALM      30.10S
ERIE MUNI ARPT MOSUNNY   67  50  53 SE5       30.08R
BOULDER MUN AP MOSUNNY   68  46  45 NE5       30.07S
CENTENNIAL     PTSUNNY   69  37  30 NW9       30.09S
BROOMFIELD     PTSUNNY   66  46  48 CALM      30.11R
FORT COLLINS   MOSUNNY   66  52  59 E8        30.09R
LONGMONT       MOSUNNY   70  49  47 E7        30.09R
$$

COZ041-046-047-076>085-087-088-271800-
...PIKES PEAK/PALMER DIVIDE AND SOUTHERN FOOTHILLS...

CITY           SKY/WX    TMP DP  RH WIND       PRES   REMARKS
COLO. SPRINGS  MOSUNNY   65  47  52 SE9       30.14F
A. F. ACADEMY  MOSUNNY   64  46  52 SE13      30.14F
ELLICOTT       SUNNY    N/A N/A N/A SW8G17    30.14S
FALCON         SUNNY     63  44  49 S7        30.19R
FORT CARSON    SUNNY     69  43  37 SW15G22   30.10F
LIMON            N/A    N/A N/A N/A MISG      30.10F
MONUMENT HILL  SUNNY     64  34  32 SE13G20   30.17R
TRINIDAD       MOSUNNY   70  48  45 VRB6      30.14S
$$

COZ042>045-048>051-090-091-271800-
...NORTHEAST COLORADO...

CITY           SKY/WX    TMP DP  RH WIND       PRES   REMARKS
GREELEY ARPT   SUNNY     66  54  63 NE6       30.08S
AKRON          SUNNY     71  49  45 S9        30.07S
BURLINGTON     SUNNY     71  53  52 S14G21    30.09S
WRAY           PTSUNNY   70  57  63 SE10      30.07S
STERLING       SUNNY     68  52  56 SW3       30.04S
HOLYOKE        PTSUNNY   68  54  60 SE14      30.08S
FORT MORGAN    NOT AVBL
$$

COZ086-089-092>099-271800-
...SOUTHEAST COLORADO...

CITY           SKY/WX    TMP DP  RH WIND       PRES   REMARKS
PUEBLO         SUNNY     67  49  52 CALM      30.08F
LA JUNTA       SUNNY     70  53  54 SW3       30.08F
LAMAR          MOSUNNY   76  57  51 S14G23    30.05S
SPRINGFIELD      N/A     72  55  55 SW15G22   30.10S
$$


USA.gov is the U.S. government's official web portal to all federal, state and local government web resources and services.